Location: Unspecified
(41.1637°N, 24.2901°E)
Time: 13:03:08
(UTC+01:00)

ISS - Pass Details

Date: 26 November 2023
Orbit: 415 x 417 km, 51.6° (Epoch: 06 December)

Event Time Altitude Azimuth Distance (km) Brightness Sun altitude
Rises 17:29:58 0° 303° (WNW) 2,361 0.7 -17.2°
Reaches altitude 10° 17:32:51 10° 330° (NNW) 1,498 -0.8 -17.8°
Enters shadow 17:34:32 14° 0° (N) 1,281 -1.4 -18.1°
